This is the latest recevied weather packets stored in our database for station/object ENBN. If no packets are shown the sender has not sent any weather packets the latest 10 day(s).
| Time | Temp. | Humidity | Pressure | Rain* | Wind** | Luminosity | Snow |
|---|---|---|---|---|---|---|---|
| 1787882587 | 15° C | 87% | 1019 hPa | - | - | - | - |
| 1787880786 | 15° C | 87% | 1018 hPa | - | - | - | - |
| 1787878988 | 15.56° C | 77% | 1018 hPa | - | - | - | - |
| 1787877187 | 15.56° C | 77% | 1019 hPa | - | - | - | - |
| 1787875387 | 16.67° C | 67% | 1019 hPa | - | - | - | - |
| 1787873587 | 15.56° C | 77% | 1019 hPa | - | - | - | - |
| 1787871787 | 16.67° C | 72% | 1019 hPa | - | - | - | - |
| 1787869987 | 18.89° C | 55% | 1019 hPa | - | - | - | - |
| 1787868187 | 18.89° C | 55% | 1019 hPa | - | - | - | - |
| 1787866387 | 17.78° C | 63% | 1019 hPa | - | - | - | - |
| 1787864587 | 16.67° C | 72% | 1020 hPa | - | - | - | - |
| 1787862788 | 15.56° C | 72% | 1020 hPa | - | - | - | - |
| 1787860986 | 15.56° C | 77% | 1020 hPa | - | - | - | - |
| 1787859186 | 16.67° C | 72% | 1020 hPa | - | - | - | - |
| 1787857386 | 17.78° C | 63% | 1020 hPa | - | - | - | - |
| 1787855587 | 18.89° C | 68% | 1020 hPa | - | - | - | - |
| 1787853788 | 20.56° C | 56% | 1020 hPa | - | - | - | - |
| 1787851987 | 21.67° C | 49% | 1021 hPa | - | - | - | - |
| 1787850187 | 21.67° C | 53% | 1021 hPa | - | - | - | - |
| 1787848387 | 22.78° C | 49% | 1021 hPa | - | - | - | - |
| 1787846587 | 22.78° C | 46% | 1021 hPa | - | - | - | - |
| 1787844787 | 22.78° C | 46% | 1022 hPa | - | - | - | - |
| 1787842988 | 22.78° C | 43% | 1022 hPa | - | - | - | - |
| 1787841188 | 22.78° C | 46% | 1022 hPa | - | - | - | - |
| 1787839387 | 22.78° C | 43% | 1022 hPa | - | - | - | - |
* Rain since midnight (hover to see other rain measurements)
** Current wind speed in m/s (hover to see current wind gust speed)